User: anonymous   Login
Location: NJAA Observatory
(40.6819°N, 74.8979°W)
Time: 19:12:23
(UTC-04:00)
Language:

Cosmos 1461 - Orbit

View from above orbital plane
View from above orbital plane
View from above satellite
View from above satellite

Ground track
Ground track

The orbit data is extracted from the following two-line orbital elements,

1 14064U 83044A   16236.86099836 +.00000476 +00000-0 +56560-4 0  9994
2 14064 065.0015 124.3903 0100296 173.4426 186.8030 14.93137026678958
Epoch (UTC): 23 August 2016 20:39:50
Eccentricity: 0.0100296
inclination: 65.0015°
perigee height: 518 km
apogee height: 658 km
right ascension of ascending node: 124.3903°
argument of perigee: 173.4426°
revolutions per day: 14.93137026
mean anomaly at epoch: 186.8030°
orbit number at epoch: 67895

The dashed part of the orbit path shows where the satellite is in the earth's shadow,  

DLR